S-NET D (43186 NORAD) Tracking and Keplerian Element Data

This shows tracking and keplerian element data for the satellite.

Feedback or suggestion? Click here.




ElementValue
Catalog43186
NameS-NET D
Epoch Orbit11840
Epoch Day93.9736894
Epoch Year2020
RAAN3.0219
Inclination97.6989
Eccentricity0.0012557
Argument of Perigee113.2421
Mean Anonmoly247.0124
Mean Motion14.96778419
Decay Rate3.37E-06
L11 43186U 18014G 20093.97368940 .00000337 00000-0 34496-4 0 9999
L22 43186 97.6989 3.0219 0012557 113.2421 247.0124 14.96778419118401

Live tracking and technical data element details for S-NET D (NORAD 43186). S-NET D can be tracked NOW for your location showing map with azimuth and elevation plus other details from your city location.

Track the satellite on the map from your city or location and see movement details for azimuth, elevation, latitude, longitude, range, height, and movement on the map or in text.







IsCatalogInMostPopularTable: catalog: 43186, numindb: 424
Update: records affected: 1



GetName: 43186 S-NET D

Hit Count: updated at: Tue, 07 Apr 2020 22:18:01 GMT